Weather History for Beaver Island, MI

Change the Weather History Date:

Saturday, June 29, 2013

  Actual Average Record
Temperature  
Mean Temperature 62 °F -  
Max Temperature 70 °F 72 °F 87 °F (1966)
Min Temperature 55 °F 52 °F 36 °F (1983)
Degree Days  
Heating Degree Days 2    
Growing Degree Days 12 (Base 50)    
Moisture  
Dew Point 54 °F    
Average Humidity 79    
Maximum Humidity 99    
Minimum Humidity 55    
Precipitation  
Precipitation 0.00 in - - ()
Sea Level Pressure  
Sea Level Pressure 29.72 in    
Wind  
Wind Speed 4 mph (North)    
Max Wind Speed 14 mph    
Max Gust Speed 20 mph    
Visibility 10 miles    
Events Rain    
Averages and records for this station are not official NWS values.
T = Trace of Precipitation, MM = Missing Value Source: NWS Daily Summary

Daily Weather History Graph

Daily Weather History Graph

Search for Another Location

Airport:

Trip Planner

Search our weather history database for the weather conditions in past years. The results will help you decide how hot, cold, wet, or windy it might be!

Date:

Astronomy

Jun. 29, 2013 Rise Set
Actual Time 5:55 AM EDT 9:35 PM EDT
Civil Twilight 5:17 AM EDT 10:13 PM EDT
Nautical Twilight 4:26 AM EDT 11:04 PM EDT
Astronomical Twilight 3:17 AM EDT 12:13 AM EDT
Moon 12:42 AM EDT 1:30 PM EDT
Length of Visible Light 16h 56m
Length of Day
15h 39m
Waning Gibbous, 56% of the Moon is Illuminated
Jun 29
Waning Gibbous
Jun 30
Last Quarter
Jul 8
New
Jul 15
First Quarter
Jul 22
Full

Hourly Weather History & Observations

Time (EDT) Temp. Dew Point Humidity Pressure Visibility Wind Dir Wind Speed Gust Speed Precip Events Conditions
12:15 AM 57.2 °F 56.8 °F 99% 29.67 in 5.0 mi Calm Calm - N/A Rain Rain
12:35 AM 57.4 °F 57.2 °F 99% 29.66 in 10.0 mi Calm Calm - N/A   Overcast
12:54 AM 57.6 °F 57.4 °F 99% 29.66 in 10.0 mi Calm Calm - N/A   Overcast
1:15 AM 57.7 °F 57.4 °F 99% 29.66 in 10.0 mi Calm Calm - N/A   Overcast
1:35 AM 58.1 °F 57.6 °F 98% 29.66 in 10.0 mi NNE 3.5 mph - N/A   Overcast
1:54 AM 58.1 °F 57.6 °F 98% 29.66 in 10.0 mi Calm Calm - N/A   Overcast
2:15 AM 58.1 °F 57.4 °F 97% 29.66 in 10.0 mi North 3.5 mph - N/A   Overcast
2:35 AM 57.7 °F 57.2 °F 98% 29.66 in 10.0 mi North 3.5 mph - N/A   Overcast
2:55 AM 57.6 °F 56.5 °F 96% 29.66 in 10.0 mi NNE 5.8 mph - N/A   Overcast
3:15 AM 57.4 °F 56.3 °F 96% 29.66 in 10.0 mi North 4.6 mph - N/A   Overcast
3:35 AM 57.2 °F 56.5 °F 97% 29.66 in 10.0 mi North 4.6 mph - N/A   Scattered Clouds
3:55 AM 57.2 °F 56.5 °F 97% 29.66 in 10.0 mi Calm Calm - N/A   Mostly Cloudy
4:15 AM 57.4 °F 56.5 °F 97% 29.65 in 10.0 mi NNE 3.5 mph - N/A   Overcast
4:35 AM 57.2 °F 56.3 °F 97% 29.66 in 10.0 mi North 4.6 mph - N/A   Overcast
4:55 AM 56.8 °F 56.3 °F 98% 29.66 in 10.0 mi North 5.8 mph - N/A   Overcast
5:15 AM 56.5 °F 55.8 °F 97% 29.66 in 10.0 mi North 5.8 mph - N/A   Mostly Cloudy
5:35 AM 56.3 °F 55.4 °F 97% 29.67 in 10.0 mi North 3.5 mph - N/A   Scattered Clouds
5:55 AM 55.9 °F 55.4 °F 98% 29.67 in 10.0 mi North 5.8 mph - N/A   Scattered Clouds
6:14 AM 55.6 °F 54.9 °F 97% 29.68 in 10.0 mi North 3.5 mph - N/A   Scattered Clouds
6:35 AM 55.6 °F 54.7 °F 97% 29.68 in 10.0 mi North 8.1 mph - N/A   Scattered Clouds
6:55 AM 55.8 °F 54.7 °F 96% 29.69 in 10.0 mi North 3.5 mph - N/A   Scattered Clouds
7:14 AM 55.8 °F 54.7 °F 96% 29.69 in 10.0 mi Calm Calm - N/A   Clear
7:35 AM 55.8 °F 54.5 °F 96% 29.68 in 10.0 mi North 3.5 mph - N/A   Mostly Cloudy
7:55 AM 56.3 °F 54.5 °F 94% 29.69 in 10.0 mi NNE 3.5 mph - N/A   Overcast
8:15 AM 56.7 °F 54.7 °F 93% 29.69 in 10.0 mi NNE 4.6 mph - N/A   Scattered Clouds
8:35 AM 57.4 °F 54.9 °F 91% 29.69 in 10.0 mi NNE 4.6 mph - N/A   Scattered Clouds
8:55 AM 58.6 °F 54.9 °F 87% 29.70 in 10.0 mi North 5.8 mph - N/A   Clear
9:15 AM 59.9 °F 54.3 °F 82% 29.70 in 10.0 mi NNE 5.8 mph - N/A   Clear
9:35 AM 60.8 °F 53.8 °F 78% 29.71 in 10.0 mi NNE 8.1 mph - N/A   Clear
9:55 AM 61.7 °F 54.7 °F 78% 29.70 in 10.0 mi NNE 9.2 mph - N/A   Scattered Clouds
10:15 AM 61.0 °F 54.5 °F 79% 29.70 in 10.0 mi North 5.8 mph - N/A   Clear
10:35 AM 62.8 °F 54.0 °F 73% 29.70 in 10.0 mi NNE 9.2 mph - N/A   Clear
10:54 AM 64.8 °F 53.8 °F 68% 29.70 in 10.0 mi NNE 10.4 mph - N/A   Clear
11:15 AM 65.1 °F 54.3 °F 68% 29.70 in 10.0 mi North 6.9 mph - N/A   Scattered Clouds
11:35 AM 65.3 °F 55.0 °F 69% 29.70 in 10.0 mi North 5.8 mph - N/A   Clear
11:55 AM 65.8 °F 54.7 °F 67% 29.70 in 10.0 mi North 13.8 mph 17.3 mph N/A   Scattered Clouds
12:12 PM 64.2 °F 54.1 °F 70% 29.71 in 10.0 mi North 8.1 mph 16.1 mph N/A   Overcast
12:35 PM 65.3 °F 55.0 °F 69% 29.72 in 10.0 mi NNE 8.1 mph - N/A   Overcast
12:54 PM 65.3 °F 54.5 °F 68% 29.72 in 10.0 mi North 8.1 mph - N/A   Overcast
1:15 PM 65.1 °F 54.7 °F 69% 29.73 in 10.0 mi NE 8.1 mph - N/A   Overcast
1:35 PM 66.2 °F 55.0 °F 67% 29.73 in 10.0 mi NNE 12.7 mph 17.3 mph N/A   Overcast
1:54 PM 66.9 °F 53.6 °F 62% 29.73 in 10.0 mi NNE 11.5 mph 19.6 mph N/A   Overcast
2:15 PM 66.6 °F 54.0 °F 64% 29.73 in 10.0 mi NE 8.1 mph - N/A   Overcast
2:35 PM 65.3 °F 53.1 °F 65% 29.74 in 10.0 mi ENE 9.2 mph - N/A   Overcast
2:55 PM 66.4 °F 53.6 °F 63% 29.74 in 10.0 mi NNE 9.2 mph - N/A   Overcast
3:15 PM 66.6 °F 53.8 °F 63% 29.74 in 10.0 mi NE 6.9 mph - N/A   Overcast
3:35 PM 67.3 °F 54.3 °F 63% 29.74 in 10.0 mi North 8.1 mph - N/A   Overcast
3:55 PM 69.4 °F 55.2 °F 60% 29.74 in 10.0 mi North 5.8 mph - N/A   Overcast
4:15 PM 68.4 °F 54.3 °F 61% 29.74 in 10.0 mi North 6.9 mph - N/A   Mostly Cloudy
4:35 PM 70.5 °F 55.2 °F 58% 29.75 in 10.0 mi North 6.9 mph - N/A   Scattered Clouds
4:55 PM 70.5 °F 55.9 °F 60% 29.75 in 10.0 mi NNW 9.2 mph - N/A   Clear
5:14 PM 69.3 °F 54.7 °F 60% 29.75 in 10.0 mi NNW 6.9 mph - N/A   Clear
5:35 PM 69.8 °F 54.7 °F 59% 29.75 in 10.0 mi NNW 5.8 mph - N/A   Clear
5:55 PM 69.3 °F 54.5 °F 59% 29.76 in 10.0 mi North 6.9 mph - N/A   Clear
6:15 PM 68.9 °F 54.9 °F 61% 29.75 in 10.0 mi NNW 5.8 mph - N/A   Clear
6:35 PM 69.4 °F 53.4 °F 57% 29.76 in 10.0 mi North 8.1 mph - N/A   Clear
6:54 PM 69.3 °F 53.1 °F 56% 29.76 in 10.0 mi North 8.1 mph - N/A   Clear
7:15 PM 68.9 °F 52.7 °F 56% 29.77 in 10.0 mi North 8.1 mph - N/A   Clear
7:35 PM 68.4 °F 51.6 °F 55% 29.77 in 10.0 mi North 8.1 mph - N/A   Clear
7:54 PM 68.0 °F 51.6 °F 56% 29.78 in 10.0 mi NNW 6.9 mph - N/A   Clear
8:15 PM 65.7 °F 52.5 °F 62% 29.78 in 10.0 mi NNW 4.6 mph - N/A   Clear
8:35 PM 63.9 °F 53.1 °F 68% 29.79 in 10.0 mi NW 4.6 mph - N/A   Clear
8:55 PM 62.2 °F 53.1 °F 72% 29.79 in 10.0 mi NW 4.6 mph - N/A   Clear
9:15 PM 61.0 °F 53.1 °F 75% 29.80 in 10.0 mi WNW 3.5 mph - N/A   Clear
9:35 PM 59.9 °F 53.1 °F 78% 29.80 in 10.0 mi WNW 3.5 mph - N/A   Clear
9:55 PM 59.0 °F 52.9 °F 80% 29.80 in 10.0 mi NW 4.6 mph - N/A   Clear
10:14 PM 59.0 °F 52.5 °F 79% 29.81 in 10.0 mi NW 4.6 mph - N/A   Scattered Clouds
10:35 PM 58.1 °F 51.8 °F 80% 29.82 in 10.0 mi WNW 4.6 mph - N/A   Clear
10:55 PM 57.2 °F 51.3 °F 81% 29.83 in 10.0 mi WNW 3.5 mph - N/A   Clear
11:15 PM 56.7 °F 50.5 °F 80% 29.83 in 10.0 mi NW 3.5 mph - N/A   Clear
11:35 PM 56.3 °F 49.3 °F 77% 29.83 in 10.0 mi Calm Calm - N/A   Clear
11:55 PM 57.2 °F 48.6 °F 73% 29.83 in 10.0 mi North 4.6 mph - N/A   Mostly Cloudy